ECMWFNIL_sfc_temp_051.txt.gz
Temp
18 18 18 18 19 19 19 18 19 19 19 19 19 19 19 20 21 21 21 21 21 21 21 21 21 21 22 21 21 21 21 21 21 22 21 22 22 23 22 22 23 23
18 19 19 19 19 19 19 19 19 19 19 19 19 20 20 20 21 21 20 20 21 20 21 21 21 21 21 21 21 20 20 20 19 22 21 20 21 22 22 22 22 23
18 18 18 17 17 18 18 19 19 19 19 19 20 20 20 21 20 20 20 20 20 20 20 20 20 20 20 20 20 20 20 19 19 20 20 19 20 20 21 21 21 21
17 18 18 18 18 18 18 18 19 19 19 19 19 20 20 20 20 20 20 20 20 20 20 20 20 20 20 20 19 19 19 19 20 20 19 19 19 20 20 21 21 21
17 17 18 18 18 18 18 18 18 18 18 19 19 19 19 19 19 19 19 19 19 19 18 19 19 19 20 20 20 19 19 19 20 20 19 18 19 19 19 19 18 18
17 17 18 17 18 17 17 17 18 18 18 18 18 19 19 19 18 18 18 18 19 19 19 18 19 19 19 19 19 19 19 19 19 19 18 18 18 19 19 18 17 17
16 16 16 17 17 17 17 17 18 19 18 18 18 17 18 18 17 18 18 18 19 19 19 19 19 19 20 20 19 19 19 19 19 18 18 18 18 18 18 17 17 16
15 16 16 15 15 16 16 17 17 16 17 17 16 17 17 17 17 17 18 18 18 18 18 19 19 19 19 19 17 17 17 18 18 17 17 17 17 16 17 17 16 16
15 15 15 14 15 15 15 16 16 16 16 15 15 15 17 16 16 17 17 17 17 17 18 18 18 18 19 18 17 16 16 16 17 17 16 16 15 15 16 16 15 15
14 14 14 14 13 14 15 15 15 15 15 15 15 15 14 15 16 16 17 16 16 16 17 17 17 18 18 18 18 17 16 16 15 15 15 15 15 14 15 15 15 15
13 13 13 13 14 14 14 15 14 14 15 14 13 13 14 14 15 16 15 15 15 15 16 16 17 17 17 18 18 18 18 17 16 15 14 14 15 15 16 15 15 15
12 12 12 13 13 13 14 14 14 13 13 13 13 12 13 13 13 14 14 14 15 15 16 16 16 17 17 17 17 18 18 17 16 16 16 15 14 14 14 15 14 14
11 11 12 12 13 13 13 13 12 12 12 12 12 12 11 11 12 13 14 14 14 15 15 15 15 16 16 17 17 17 16 15 16 16 16 16 15 15 15 15 15 15
11 12 12 12 12 12 12 12 12 11 11 11 11 10 10 10 11 12 13 14 14 14 14 15 15 15 16 16 16 16 16 16 16 15 16 16 16 16 16 15 15 15
11 12 12 12 12 11 11 11 10 10 10 10 10 9 10 11 11 12 12 12 13 13 14 14 14 15 15 16 16 16 16 16 16 16 16 16 16 16 16 16 16 16
11 11 11 11 10 10 10 9 9 9 9 8 9 9 9 9 10 10 11 11 11 12 13 14 14 15 18 21 22 19 17 17 17 17 17 16 16 16 16 17 17 17
10 10 10 9 9 9 9 8 8 8 7 7 8 8 8 8 9 8 9 10 11 11 12 13 14 16 20 22 24 25 23 21 18 17 17 17 17 16 16 16 17 18
9 9 8 8 8 7 7 7 7 6 6 6 6 6 7 8 7 7 8 10 11 12 13 14 15 19 22 23 25 26 26 24 22 21 19 17 17 17 17 17 17 17
8 8 7 6 6 6 6 6 5 5 4 5 5 6 7 6 7 8 8 10 11 12 13 14 14 20 23 24 25 27 28 27 24 23 22 20 18 18 18 18 18 18
7 6 5 5 5 5 5 4 3 3 4 5 5 6 6 6 7 7 8 9 11 12 13 14 14 19 23 25 26 27 28 28 25 25 24 23 21 20 19 19 19 18
6 4 3 4 4 3 3 2 2 3 4 4 5 5 6 6 7 7 8 9 11 13 13 14 15 22 24 26 27 28 29 29 26 26 25 25 24 23 21 20 20 20
4 3 2 2 2 2 1 2 2 3 3 4 5 6 7 8 9 9 8 9 11 12 13 14 16 23 25 27 28 29 29 27 26 26 25 25 25 25 23 22 22 21
3 2 1 1 1 1 1 1 2 2 3 5 5 6 7 7 8 8 10 10 11 13 14 15 17 21 25 27 28 30 29 27 26 26 25 25 25 26 25 24 23 22
2 1 -0 0 0 -0 0 1 2 3 4 5 5 5 5 7 8 8 10 11 12 13 15 15 17 21 25 27 29 30 30 27 27 25 24 24 24 25 25 25 25 26
1 1 0 -0 -0 -0 -0 -0 1 2 4 5 6 6 6 7 8 8 10 12 13 14 17 17 18 20 25 28 29 30 29 27 25 23 24 24 24 24 25 26 26 27
1 0 -0 -1 -1 -1 -0 -0 1 3 4 5 5 6 6 7 8 9 9 10 12 14 16 18 19 21 24 27 29 30 30 28 27 24 23 24 24 25 25 25 26 26

ECMWFNIL_sfc_temp_057.txt.gz
Temp
17 17 16 16 16 17 17 17 17 16 17 17 17 17 17 18 19 19 19 19 19 19 19 19 19 19 20 19 19 19 19 19 19 19 19 19 19 18 18 18 18 17
16 17 18 18 17 18 18 18 17 17 16 17 17 18 18 19 19 19 19 19 19 19 19 19 19 19 19 19 19 18 18 18 18 20 19 18 18 18 18 18 18 18
16 16 16 16 16 16 17 17 17 17 17 17 18 18 18 19 18 19 19 19 18 18 18 18 18 18 18 18 18 18 18 17 17 18 18 17 18 18 18 18 18 18
16 16 16 16 16 16 17 16 16 17 17 17 17 17 18 18 19 18 18 19 18 18 18 18 18 18 18 18 17 17 17 17 18 18 17 17 18 18 17 18 18 18
16 16 16 16 16 17 17 16 16 16 16 16 17 17 17 17 17 17 17 17 17 17 16 17 17 17 17 17 18 16 17 17 18 18 16 15 16 16 17 17 15 15
16 16 16 16 16 16 15 15 15 15 15 15 16 17 17 17 16 16 16 16 16 16 16 15 16 16 16 17 17 17 17 17 17 17 16 15 16 17 16 15 14 13
15 15 16 16 15 15 15 14 14 15 15 15 15 14 15 15 15 15 15 15 14 14 14 14 14 15 16 17 17 17 17 17 17 17 15 15 15 15 17 15 14 13
15 15 15 14 13 13 13 13 13 13 13 14 13 14 14 14 14 14 14 14 13 13 14 14 14 15 16 17 16 16 16 17 16 15 14 14 14 14 15 15 14 12
15 14 13 13 12 12 12 12 12 13 13 12 12 13 14 14 13 13 13 13 12 12 13 13 14 14 15 15 15 15 15 15 16 16 15 14 13 13 13 14 13 12
14 13 12 12 11 11 11 12 12 12 13 12 12 12 12 13 13 12 12 12 11 11 11 11 12 13 14 14 14 14 14 14 15 14 14 13 13 13 13 13 12 11
13 12 11 11 11 12 11 11 11 12 12 12 11 11 11 11 11 12 11 10 10 10 10 11 12 13 13 14 15 15 15 15 15 15 15 14 13 13 15 13 12 12
12 11 11 11 11 11 11 11 11 11 11 11 11 11 10 10 10 10 10 9 10 10 11 11 11 12 13 14 14 14 14 14 14 14 14 14 13 13 13 14 13 13
11 11 11 11 11 11 11 11 11 11 11 10 11 10 9 8 9 9 9 9 10 10 10 11 11 12 13 13 13 13 13 12 13 13 14 14 14 14 14 14 14 14
12 12 11 11 11 11 11 11 11 10 10 10 9 8 7 7 7 7 8 9 9 9 10 10 10 10 11 12 12 12 12 12 13 13 13 14 15 15 15 15 15 15
12 12 12 11 11 11 11 10 10 10 10 8 7 6 7 7 7 7 7 7 8 8 9 9 9 9 10 10 10 10 11 11 12 13 13 14 14 15 16 16 15 14
11 11 11 11 10 10 10 10 10 9 7 7 6 6 5 6 5 6 5 5 6 6 7 8 8 9 11 15 16 13 12 12 13 14 14 14 14 15 15 16 16 15
11 10 10 9 9 10 9 9 9 7 6 5 5 5 4 4 4 4 4 4 5 5 5 6 7 8 13 16 18 19 18 16 16 15 15 15 15 15 15 16 17 17
10 10 9 8 9 9 9 8 7 6 5 5 4 3 4 3 3 3 3 4 4 4 4 5 5 11 15 17 18 20 21 19 19 19 19 18 18 18 17 17 18 18
10 9 8 7 7 7 7 6 5 4 3 2 1 2 2 1 2 3 3 4 3 3 3 5 5 11 15 17 19 20 22 22 21 21 21 21 21 21 21 21 20 19
8 8 6 5 6 6 5 5 3 1 1 0 1 2 1 1 2 2 2 2 2 2 3 4 5 10 15 17 19 21 22 23 22 22 22 22 23 23 23 22 22 20
8 6 5 4 4 4 3 2 1 -0 1 1 -0 1 1 -0 0 0 1 2 3 3 3 4 5 13 16 18 20 22 23 24 23 23 23 23 24 24 25 24 24 22
6 5 4 3 3 2 1 1 1 -1 -1 0 -0 -0 1 1 2 3 3 3 4 4 3 3 5 14 16 19 20 22 24 23 23 23 23 24 25 26 26 26 25 24
6 4 3 2 1 0 -0 -0 -0 -1 -1 -0 -2 -0 0 1 2 2 3 3 3 3 3 3 5 10 16 18 20 23 24 22 23 23 23 24 24 25 26 26 26 25
6 4 2 1 0 -1 -1 0 0 0 -0 -0 -1 -1 -0 1 1 1 2 3 3 3 5 4 6 11 16 19 21 23 24 23 23 21 21 22 22 23 25 26 26 27
5 4 3 1 -1 -1 -1 -1 -0 -1 -1 -1 -1 -2 -1 -1 0 1 2 3 4 5 8 8 8 11 16 19 21 23 23 23 22 21 20 21 22 22 22 23 24 26
3 2 1 0 -0 -2 -3 -2 -2 -4 -3 -2 -1 -0 -0 0 1 1 1 2 4 5 6 8 8 9 12 18 21 23 25 23 22 21 20 20 21 22 20 18 17 19

ECMWFNIL_sfc_temp_060.txt.gz
Temp
17 17 17 17 17 17 17 16 17 16 17 17 17 17 17 18 19 18 18 19 19 18 18 18 18 18 19 19 19 19 18 18 18 19 18 18 18 18 17 17 17 17
17 18 19 18 17 18 18 18 17 17 17 17 17 17 18 18 18 18 18 18 19 18 19 18 18 18 18 18 18 17 17 17 17 19 18 18 18 18 17 18 17 18
17 17 17 16 17 17 18 18 18 17 17 17 17 17 17 18 18 18 18 18 18 18 18 17 17 18 16 17 17 17 17 16 16 17 17 17 17 17 17 18 17 17
17 17 17 17 17 17 18 17 17 17 17 17 17 17 17 17 17 17 17 18 18 17 17 17 17 17 17 17 16 16 16 16 17 17 16 16 17 17 17 17 17 17
17 17 18 17 17 18 17 16 16 17 16 17 17 17 17 16 16 17 17 17 17 17 14 16 17 16 16 16 16 14 15 15 16 16 15 14 15 15 16 15 13 13
17 17 17 17 17 17 16 16 16 16 16 16 16 17 16 16 15 15 15 15 16 15 15 15 15 15 14 14 15 14 14 14 15 15 15 14 14 16 14 14 12 12
16 16 17 17 17 17 16 16 16 16 16 15 15 14 14 14 14 14 14 14 13 14 14 13 13 13 14 14 13 13 14 14 15 15 14 14 14 14 15 13 12 12
16 16 16 16 16 16 15 15 15 15 15 14 13 14 14 13 13 13 13 13 13 13 13 13 12 13 13 13 13 13 14 15 15 14 14 14 14 13 13 13 12 11
15 15 16 15 14 14 14 14 14 14 14 13 13 13 13 13 13 13 12 12 12 12 12 11 12 11 12 12 12 12 13 14 15 15 15 14 14 14 14 13 13 12
14 15 15 14 13 13 13 13 14 14 14 13 13 13 12 13 13 13 12 12 11 11 10 10 11 11 11 10 11 12 12 12 13 13 13 13 13 13 12 12 12 12
13 14 13 13 13 13 13 13 13 13 13 13 12 12 12 12 12 12 11 11 10 10 10 10 10 10 10 11 12 13 13 13 13 13 14 14 14 14 15 13 12 12
13 13 13 13 13 13 13 13 13 13 13 13 12 11 12 12 11 10 10 10 10 10 9 9 10 10 10 11 11 12 13 14 13 13 14 14 13 13 13 13 12 12
13 12 12 12 12 12 13 12 12 12 12 11 12 11 10 10 10 9 10 9 9 9 9 9 9 10 10 11 11 12 12 12 13 13 13 13 13 14 13 13 12 12
13 13 13 12 12 12 12 12 12 12 12 12 11 10 9 9 8 8 9 9 8 8 9 9 9 9 9 9 10 10 11 11 12 12 12 12 12 13 14 13 14 14
13 13 13 12 12 11 11 11 11 11 11 11 10 9 9 8 8 8 7 6 7 7 7 8 8 8 8 8 8 9 10 10 11 11 12 12 12 13 13 14 14 14
12 12 12 12 11 10 10 10 10 10 10 10 9 8 7 7 7 6 6 5 5 5 6 6 7 8 10 13 14 10 9 9 10 11 11 11 11 11 12 13 14 14
12 11 12 11 10 10 10 9 9 9 9 9 8 7 6 6 6 5 4 4 4 3 3 4 5 7 12 14 16 17 15 12 11 11 12 12 13 12 12 13 14 14
11 11 10 10 10 9 9 8 8 8 7 7 7 6 6 5 4 3 3 3 3 3 3 3 4 9 13 14 16 17 18 15 15 14 14 14 14 14 14 15 15 16
11 10 9 9 9 9 8 7 6 6 6 5 4 5 4 2 2 3 3 3 2 2 2 3 3 9 13 15 16 18 19 19 17 17 17 17 18 17 16 17 18 18
10 9 8 8 8 8 6 5 4 3 4 3 3 3 2 1 2 2 2 1 1 1 1 2 2 8 12 14 16 18 19 20 18 18 18 19 19 20 20 20 20 20
10 8 8 7 7 6 5 4 3 2 3 2 1 2 1 -0 -0 -0 0 1 1 1 1 1 1 9 12 15 16 18 20 20 19 19 19 19 20 21 22 22 22 23
9 8 7 7 6 5 4 4 3 1 0 1 1 1 0 0 0 0 0 0 1 1 0 0 2 10 13 15 17 18 20 19 19 19 20 21 21 22 23 23 24 24
9 8 7 6 5 3 3 2 3 1 1 1 -0 1 1 1 0 1 1 1 1 2 1 2 2 8 13 15 17 19 19 18 19 19 20 21 21 22 24 24 25 25
9 8 6 5 4 2 2 2 2 2 1 1 0 -1 -0 -0 0 0 1 1 1 1 2 1 2 6 12 14 17 19 20 18 19 19 20 21 21 22 22 22 23 27
9 8 6 5 4 3 2 2 2 1 1 1 0 0 -0 -0 -1 -1 -1 0 1 1 5 4 4 7 12 15 17 19 20 19 19 20 20 20 20 19 20 20 20 23
8 7 6 5 4 3 1 1 1 -0 -0 0 -0 -0 -2 -1 -1 -1 -1 -0 1 2 2 4 4 5 8 14 16 19 21 20 20 19 19 19 20 19 19 20 20 19

ECMWFNIL_sfc_temp_066.txt.gz
Temp
35 35 35 34 34 34 34 33 33 32 31 31 29 30 30 30 31 30 30 29 29 29 29 29 29 28 28 28 28 28 28 27 27 28 27 27 27 26 25 26 26 26
34 34 34 34 34 34 33 33 32 32 31 30 29 29 29 30 30 30 29 29 29 28 29 28 28 28 28 27 27 27 27 27 26 28 27 26 26 26 25 25 25 26
35 34 33 32 32 33 33 32 31 31 31 29 29 28 27 29 28 29 29 28 28 28 28 27 27 27 26 27 27 26 26 26 25 27 26 26 26 26 26 26 26 25
35 34 33 33 33 33 33 31 30 30 30 28 27 27 27 27 27 27 28 27 27 27 27 27 27 27 26 26 25 25 26 26 26 26 25 26 26 26 26 27 26 26
35 34 33 33 33 33 32 31 30 29 27 27 27 26 25 25 25 25 26 27 27 26 26 26 26 26 26 26 26 24 25 24 25 25 24 23 25 24 24 25 22 22
35 35 34 33 32 32 31 30 30 29 27 26 26 26 25 25 25 24 25 25 26 26 25 26 25 26 26 26 25 25 24 24 25 24 23 23 24 25 24 22 21 20
34 34 33 33 32 32 30 30 29 28 26 26 26 24 24 23 23 23 24 24 25 25 25 25 24 24 25 25 24 24 24 24 24 23 22 23 23 23 23 21 20 20
35 35 34 33 31 30 30 29 28 26 25 25 24 24 24 23 23 23 23 23 24 24 24 24 24 24 25 25 23 22 22 23 22 22 21 21 21 22 22 21 20 19
35 33 32 31 30 29 28 27 26 25 25 23 22 22 23 22 22 22 22 23 23 23 23 23 24 24 24 22 22 21 21 21 21 21 20 20 20 21 21 20 20 18
33 31 29 28 27 26 26 26 25 24 23 23 22 22 21 22 22 21 21 21 21 21 22 22 22 22 22 22 21 21 19 19 20 20 19 18 19 19 20 20 19 18
34 31 28 27 26 25 25 25 24 23 23 22 22 21 21 21 20 21 21 21 20 20 20 21 21 21 21 21 21 21 20 18 17 16 16 17 18 19 19 19 19 18
34 32 28 27 26 25 24 24 24 23 22 21 21 20 21 20 19 19 19 19 20 20 21 21 21 21 21 20 20 20 20 18 16 16 16 16 16 17 17 18 18 18
34 33 31 28 26 25 24 23 23 22 22 20 20 20 19 19 18 19 20 19 19 20 19 19 19 19 19 20 20 19 17 15 15 15 16 16 16 16 16 17 17 17
34 33 32 29 26 24 23 22 21 22 21 21 20 18 18 17 17 18 19 20 19 19 19 19 18 18 19 19 17 17 15 14 14 14 14 15 15 16 16 16 17 17
34 33 32 30 27 24 22 21 21 20 20 19 19 17 18 17 18 17 17 17 18 18 17 17 16 16 17 16 15 14 14 13 13 13 13 13 14 15 16 16 16 16
34 33 31 29 27 24 22 21 20 19 18 18 18 17 17 17 16 17 16 15 15 15 15 15 15 15 17 18 18 14 12 12 12 13 13 13 13 14 15 15 15 15
33 32 30 28 26 24 22 20 19 18 17 16 16 16 15 15 15 14 14 15 14 13 13 14 14 14 17 18 18 18 14 11 11 12 12 12 12 13 13 14 15 15
32 31 30 27 25 24 22 19 18 17 16 15 15 15 14 14 14 13 13 14 13 13 12 13 13 15 17 18 18 19 18 14 12 11 11 12 12 12 13 13 14 14
31 30 28 26 24 22 20 18 16 16 15 14 13 14 14 13 13 13 12 13 12 11 11 12 11 15 17 18 18 18 19 18 15 12 12 12 12 12 12 13 14 14
30 29 25 23 23 21 19 17 15 14 14 14 14 14 12 12 12 12 12 11 11 10 10 10 10 13 16 17 18 18 19 18 15 15 12 13 13 13 14 14 14 14
29 26 24 24 22 20 17 16 14 14 13 13 13 12 11 11 11 10 10 10 10 10 9 9 9 14 15 16 17 18 18 18 15 15 15 14 14 14 15 15 16 16
27 25 24 23 21 18 16 15 14 13 12 13 12 12 12 12 12 11 10 9 9 9 8 7 8 14 15 16 17 17 18 15 15 14 14 15 15 16 16 17 17 17
26 24 22 21 21 18 15 14 13 13 13 13 11 11 11 10 10 10 11 9 8 8 7 7 8 11 14 15 16 17 16 14 14 14 14 14 15 16 17 18 18 19
24 23 21 21 20 18 16 15 14 13 12 12 11 10 10 10 10 10 10 9 8 8 7 6 7 10 13 14 15 16 16 13 13 13 13 13 14 16 17 18 19 21
23 22 21 20 19 19 17 14 13 12 12 11 11 10 10 10 10 9 8 9 8 7 9 7 6 8 12 13 15 15 15 13 13 13 12 13 14 16 17 19 20 21
21 20 20 19 18 18 17 15 15 13 11 10 10 10 10 10 9 8 7 8 8 7 6 7 6 6 8 12 13 15 16 14 14 13 12 13 15 16 17 18 20 21

ECMWFNIL_sfc_temp_069.txt.gz
Temp
43 42 41 40 40 40 39 39 40 39 40 39 38 37 36 35 35 33 31 31 30 30 30 30 31 30 30 31 31 30 30 30 30 30 29 29 28 28 27 28 28 28
43 43 41 41 40 40 39 39 38 38 38 39 39 38 37 35 34 32 31 31 30 30 30 30 30 30 30 29 30 29 29 29 29 30 29 28 28 28 27 27 27 28
44 43 42 40 39 39 39 39 38 37 37 38 38 37 36 35 32 32 31 31 30 30 29 29 29 30 29 29 29 29 28 28 28 29 29 28 28 28 28 28 27 27
44 43 42 41 41 40 39 38 38 38 37 35 35 35 34 33 32 31 30 30 30 29 29 29 29 29 29 28 28 27 28 28 29 29 28 28 28 28 28 28 28 27
44 43 43 42 41 40 40 38 37 36 36 35 35 34 32 31 30 29 29 29 29 28 28 28 28 28 28 28 27 26 27 27 28 28 27 26 27 27 27 27 25 24
46 46 44 42 41 40 38 38 37 36 35 34 33 33 31 30 29 28 28 27 27 27 27 27 27 27 27 27 27 26 26 26 27 27 26 26 26 27 26 25 24 23
44 44 43 42 40 40 39 37 36 36 35 35 33 31 30 28 27 27 27 27 27 26 26 26 26 26 27 27 26 25 26 26 26 26 25 25 25 25 26 24 23 23
44 44 43 41 41 39 38 37 36 35 35 34 33 30 29 27 27 26 26 26 25 25 26 26 26 26 26 26 25 25 25 25 25 25 24 24 24 24 24 23 22 21
43 43 43 41 39 39 37 36 36 35 35 33 32 30 29 27 26 26 25 25 24 24 24 25 25 25 25 25 24 24 24 24 25 24 24 23 22 23 23 22 21 20
42 42 41 41 39 39 37 36 36 35 34 32 30 30 27 27 26 25 24 24 23 23 23 23 23 24 24 24 23 24 23 23 24 24 23 22 22 21 21 21 21 20
42 41 40 40 39 38 37 36 34 35 34 31 29 28 27 26 25 25 24 23 22 22 22 22 23 23 23 23 24 24 23 23 22 21 21 21 21 21 21 20 20 20
40 40 39 39 38 38 36 36 35 33 33 31 28 26 26 25 24 23 23 22 22 22 22 22 23 23 22 23 23 23 23 22 21 20 20 19 19 20 20 20 20 20
39 38 38 37 37 36 36 35 34 32 32 30 29 26 25 23 23 22 22 21 21 21 21 21 21 22 21 22 22 22 21 20 19 19 19 19 19 19 19 19 20 20
39 38 38 37 36 35 35 34 33 32 30 30 28 25 23 21 20 21 21 22 21 21 21 21 20 20 21 21 20 20 19 19 19 18 18 18 17 18 18 17 18 19
39 39 37 35 34 34 34 34 31 31 29 28 25 23 22 21 21 21 20 19 19 20 20 20 19 19 19 19 18 18 18 18 18 17 17 16 16 17 17 17 17 17
37 35 34 33 33 33 31 31 31 30 27 26 24 22 21 21 20 20 18 18 18 18 18 18 18 18 20 21 21 18 17 17 17 17 16 16 15 15 15 16 16 16
34 33 34 33 32 31 31 30 29 27 25 24 23 22 20 19 19 18 17 17 17 17 16 17 17 17 20 22 22 22 18 16 15 15 15 15 14 14 13 15 15 16
32 31 30 30 30 30 30 28 27 25 24 22 21 20 20 19 18 17 17 17 16 16 16 16 16 19 21 21 22 22 22 16 15 14 14 13 13 13 14 14 15 15
28 29 28 29 29 28 26 25 24 23 21 20 19 19 18 17 16 16 15 16 15 14 14 15 15 19 21 21 22 22 23 20 13 13 13 13 13 13 13 13 14 15
24 22 21 22 23 23 23 23 22 21 20 20 19 18 17 16 16 15 15 14 14 14 14 14 14 18 20 21 21 22 22 22 15 12 12 13 13 13 13 13 13 13
19 19 18 19 20 21 21 21 21 21 20 19 18 17 16 14 14 14 13 13 13 13 13 13 13 18 19 20 21 22 22 21 18 16 14 12 13 13 13 13 13 14
17 16 17 17 18 19 19 19 20 19 18 20 19 18 17 16 15 15 13 12 13 13 12 11 13 18 19 20 20 21 21 18 17 16 15 14 13 13 14 14 15 15
16 15 15 16 16 16 16 16 16 17 18 20 17 17 16 15 14 14 14 13 12 12 11 11 12 16 19 19 20 20 19 16 15 15 14 14 14 15 14 15 15 16
14 13 12 12 13 13 14 14 15 16 17 19 18 15 14 14 14 14 14 13 12 11 11 10 11 13 17 18 19 20 19 15 14 14 13 13 13 15 16 16 16 18
11 11 10 10 11 11 12 13 14 15 16 18 17 16 14 14 14 13 13 13 13 11 13 11 10 12 16 17 18 19 18 15 14 13 12 12 13 13 15 16 17 18
9 8 9 8 9 10 11 12 14 14 15 16 16 15 14 14 13 12 12 12 12 11 10 11 10 10 12 16 17 18 19 16 14 12 11 11 12 13 13 14 16 17